User: anonymous   Login
Location: Unspecified
(0.0000°N, 0.0000°E)
Time: 03:29:44
(UTC+00:00)
Language:

NOSS 2-1 (E) - Orbit

View from above orbital plane
View from above orbital plane
View from above satellite
View from above satellite

Ground track
Ground track

The orbit data is extracted from the following two-line orbital elements,

1 20642U 90050E   18318.02936872 0.00000200  00000-0  40637-4 0    05
2 20642  63.3294 300.0027 0830003  35.5246 324.4754 13.41820884    02
Epoch (UTC): 14 November 2018 00:42:17
Eccentricity: 0.0830003
inclination: 63.3294°
perigee height: 481 km
apogee height: 1723 km
right ascension of ascending node: 300.0027°
argument of perigee: 35.5246°
revolutions per day: 13.41820884
mean anomaly at epoch: 324.4754°
orbit number at epoch: 0

The dashed part of the orbit path shows where the satellite is in the earth's shadow,  

DLR